Location: Foligno
(42.9600°N, 12.7050°E)
Time: 11:26:55
(UTC+02:00)

ISS - Pass Details

Date: 08 May 2021
Orbit: 417 x 422 km, 51.6° (Epoch: 15 May)

Event Time Altitude Azimuth Distance (km) Brightness Sun altitude
Exits shadow 02:49:24 25° 350° (N) 891 -1.7 -25.4°
Drops below altitude 10° 02:52:04 10° 42° (NE) 1,506 0.0 -25.2°
Sets 02:54:25 0° 56° (NE) 2,372 1.1 -24.9°
